Location: Cheyres
(46.8153°N, 6.7877°E)
Time: 10:32:20
(UTC+00:00)

Gbstr 26 Del rocket - Pass Details

Date: 25 September 2021
Orbit: 492 x 1263 km, 51.8° (Epoch: 18 October)

Event Time Altitude Azimuth Distance (km) Brightness Sun altitude
Exits shadow 02:53:52 50° 257° (WSW) 1,462 4.5 -25.5°
Maximum altitude 02:55:15 57° 220° (SW) 1,341 4.3 -25.2°
Drops below altitude 10° 03:02:02 10° 143° (SE) 2,819 6.5 -24.2°
Sets 03:04:30 0° 140° (SE) 3,661 7.2 -23.8°
